Regional Weather Roundup
Issued by NWS

Home | Current Version | Previous Version | Graphics & Text | Print | Product List | Glossary On
Versions: 1 2 3 4 5 6 7 8 9 10 11 12 13 14 15 16 17 18 19 20 21 22 23 24 25 26 27 28 29 30 31 32 33 34 35 36 37 38 39 40 41 42 43 44 45 46 47 48 49 50
000
ASUS45 KSLC 062210
RWRUT

UTAH REGIONAL WEATHER ROUNDUP
NATIONAL WEATHER SERVICE SALT LAKE CITY UT
400 PM MDT WED MAY 06 2015

UTZ001>011-023>025-062300-

NORTHERN UTAH

CITY           SKY/WX    TMP DP  RH WIND       PRES   REMARKS
HILL AFB       LGT RAIN  51  48  87 NW6       29.76F
LOGAN          LGT RAIN  52  46  80 S7        29.77R
OGDEN          LGT RAIN  52  46  80 N6        29.76S
PROVO AIRPORT  PTSUNNY   55  45  67 NE9       29.76F
SALT LAKE CITY LGT RAIN  54  48  80 E13       29.75F
VERNAL         CLOUDY    54  46  74 SE8       29.77F
WENDOVER       CLOUDY    57  43  58 NW15      29.74R
HEBER CITY     CLOUDY    52  43  71 SW12      29.76S
WEST JORDAN    CLOUDY    55  48  76 SE10      29.76F

$$

UTZ012>022-026-027-062300-

SOUTHERN/CENTRAL UTAH

CITY           SKY/WX    TMP DP  RH WIND       PRES   REMARKS
BRYCE CANYON   MOSUNNY   57  32  38 S16       29.87F
CEDAR CITY     MOSUNNY   64  39  39 SW20G30   29.76F
DELTA          PTSUNNY   64  40  40 S24G30    29.72F
HANKSVILLE     CLOUDY    63  43  48 W6        29.75F
MILFORD        PTSUNNY   68  37  32 SW25G33   29.71F
MOAB/CYNLANDS  PTSUNNY   67  45  45 NW9G22    29.70F
PRICE          CLOUDY    55  43  63 NE6       29.78F
ST GEORGE      CLOUDY    81  30  16 SW18G25   29.69F
KANAB          MOSUNNY   70  28  21 S16G22    29.80F

$$

REGIONAL REPORTS     COLORADO/ARIZONA

CITY           SKY/WX    TMP DP  RH WIND       PRES   REMARKS
CRAIG, CO      CLOUDY    56  43  61 W10       29.78F
GRAND JUNCTION TSTM      49  44  83 SW7G38    29.81R
RIFLE          CLOUDY    53  46  77 S5        29.83F
MONTROSE       CLOUDY    59  45  59 E9        29.83F
CORTEZ         PTSUNNY   66  40  38 S13       29.84F
PAGE, AZ       SUNNY     76  26  15 SW10G18   29.73F
GRAND CANYON   PTSUNNY   63  26  24 S14G26    29.88F
KINGMAN        SUNNY     75  30  19 SW21G30   29.76F
FLAGSTAFF      SUNNY     58  34  40 S14G30    29.93F

$$

REGIONAL REPORTS    NEVADA/IDAHO/WYOMING

CITY           SKY/WX    TMP DP  RH WIND       PRES   REMARKS
LAS VEGAS, NV  MOSUNNY   85  22  10 S20G26    29.59F
ELY            LGT RAIN  49  36  61 W17G26    29.82R
ELKO           CLOUDY    63  21  20 W12       29.70F
POCATELLO, ID  MOSUNNY   62  28  27 W7        29.73F
BURLEY         CLOUDY    58  32  37 W9        29.74F
EVANSTON, WY   LGT RAIN  53  39  59 N15       29.78S
ROCK SPRINGS   CLOUDY    57  37  47 NE9       29.77F
KEMMERER       CLOUDY    55  27  33 E3        29.77S

$$


USA.gov is the U.S. government's official web portal to all federal, state and local government web resources and services.